Upstream stations:
Downstream station:
SHEF ID: QUAO2 Spring River near Quapaw, OK
STATION TYPE:
Regulating: Stage = 20.00, Flow = 33676
PRECIP STAGE STAGE(2) RIV-FLOW BAT-LOAD
in ft ft cfs volt
Ccp-Rev Ccp-Rev Ccp-Rev Ccp-Rev Ccp-Rev
(US/Central)
03/20 00:00 0.00 6.93 7.02 1229 12.02
03/20 01:00 0.00 6.93 7.02 1229 12.01
03/20 02:00 0.00 6.93 7.02 1229 12.08
03/20 03:00 0.00 6.93 7.02 1229 12.10
03/20 04:00 0.00 6.93 7.02 1229 12.00
03/20 05:00 0.00 6.93 7.01 1229 11.94
03/20 06:00 0.00 6.93 7.00 1229 11.96
03/20 07:00 0.00 6.92 7.01 1219 12.02
03/20 08:00 0.00 6.92 7.01 1219 12.04
03/20 09:00 0.00 6.93 7.00 1229 12.29
03/20 10:00 0.00 6.92 6.96 1219 12.99
03/20 11:00 0.00 6.91 6.93 1209 13.16
03/20 12:00 0.00 6.91 6.93 1209 13.03
03/20 13:00 0.00 6.91 6.90 1209 12.67
03/20 14:00 0.00 6.91 6.88 1209 12.65
03/20 15:00 0.00 6.91 6.88 1209 12.56
03/20 16:00 0.00 6.91 6.88 1209 12.61
03/20 17:00 0.00 6.89 6.88 1189 12.52
03/20 18:00 0.00 6.89 6.89 1189 12.54
03/20 19:00 0.00 6.89 6.90 1189 12.34
03/20 20:00 0.00 6.89 6.99 1189 12.13
03/20 21:00 0.00 6.89 6.98 1189 12.03
03/20 22:00 0.00 6.89 6.99 1189 12.04
03/20 23:00 0.00 6.89 7.00 1189 12.09